Location: Newark
(39.6867°N, 100.6772°W)
Time: 09:20:22
(UTC+00:00)

Vanguard 1 Rocket - Pass Details

Date: 21 October 2019
Orbit: 651 x 4225 km, 34.3° (Epoch: 13 November)

Event Time Altitude Azimuth Distance (km) Brightness Sun altitude
Rises 18:43:52 0° 260° (W) 5,812 11.7 39.4°
Reaches altitude 10° 18:46:58 10° 259° (W) 5,170 11.5 39.3°
Maximum altitude 19:04:09 76° 178° (S) 3,755 11.5 38.8°
Drops below altitude 10° 19:30:31 10° 99° (E) 7,381 12.0 37.4°
Sets 19:36:03 0° 98° (E) 8,270 12.2 37.0°
